THORAD AGENA D DEB

Satellite information

Favourite Embed

Satellite Type and Status

DEBRISIN ORBIT

Key statistics

Satellite THORAD AGENA D DEB at a glance.

Uptime

20470

Days in orbit

Revolutions

≈ 14.6

Per day

Orbit

LEO

Low Earth Orbit

Inclination

70.0

Latest

Satellite identification and parameters

Extended collection of information and parameters for THORAD AGENA D DEB.

Object identification

Identified? True

Debris? True

Object name: THORAD AGENA D DEB

International designator: 1969-082JW

Object number (NORAD): 5794

Object ID (CCSDS): 5794

Country: UNITED STATES OF AMERICA (US)

Current information (Y/N): Y

RCS size: SMALL

Orbital parameters

Period: 98.517 minutes

Inclination: 69.9981 deg

SMA: 7065.922 km

Apoapsis: 705.728 km

Periapsis: 669.846 km

RAAN: 90.5029 deg

Eccentricy: 0.00253907

Argument of periapsis: 181.2366 deg

Mean anomaly: 178.8716 deg

Mean motion: 14.61670449 rev/day

Mean motion (dot): 0.00005395 rev/day2

B* drag term: 0.0010905801 1/REarth

Two-line elements (TLE)

Creation date: Oct. 16, 2025, 2:37 a.m.

Reference frame: TEME

Reference center: EARTH

Epoch: Oct. 15, 2025, 4:58 p.m. UTC

TLE line 0: 0 THORAD AGENA D DEB

TLE line 1: 1 05794U 69082JW 25288.70757094 .00005395 00000-0 10906-2 0 9994

TLE line 2: 2 05794 69.9981 90.5029 0025391 181.2366 178.8716 14.61670449356645

Live tracking on map

Real-time ground track for satellite THORAD AGENA D DEB.

In-orbit conjunctions

A list of the most updated potential collisions computed for object THORAD AGENA D DEB.

Target Orbit TCA Probability of collision Miss distance Type
DMSP 5D-2 F11 DEB SSO 2024-11-11 09:19:05 0.008674344 95.0 (m) DEBRIS
FENGYUN 1C DEB SSO 2024-11-09 02:12:49 0.000100991 340.0 (m) DEBRIS

Associated space launch

Poppy was the follow-on ELINT system, which succeeded the Grab ELINT satellite system.

THORAD AGENA D DEB was lifted into orbit during the mission ‘Thorad SLV-2G Agena D | Poppy 8A,B,C,D’, on board a Thorad SLV-2G Agena D space rocket.

The launch took place on Sept. 30, 1969, 1:40 p.m. from Space Launch Complex 1W.

For more information about the launch, click the button.

Launch to space Thorad SLV-2G Agena D | Poppy 8A,B,C,D
Thorad SLV-2G Agena D | Poppy 8A,B,C,D

Agency: N/A

Status: Launch Successful

Launch date: Sept. 30, 1969, 1:40 p.m. UTC

Rocket: Thorad SLV-2G Agena D

Launch pad: Space Launch Complex 1W

Location: Vandenberg SFB, CA, USA

...

Latest news about this satellite

There are no fresh news available about this satellite. Check back as we update our databases every day.


Newsletter sign-up

Weekly statistics, charts and insights to help you stay on top of the space industry.